IBS473 LEZL-GCTS

Flight info

Callsign IBS473
Flight time 2h 12m
Altitude 35000
Route CLANA DCT KORNO UN857 ABODA/N0451F370 UN857 TERTO
Aircraft A320/M-SDE3FGHIRWY/LB1

Departure

Time 2026-04-28 16:29
Airport Seville Airport (LEZL)

Arrival

Time 2026-04-28 18:42
Airport Tenerife Sur Airport (GCTS)
Time Latitude Longitude Altitude Speed Heading
2026-04-28 16:01 37.42184 -5.89982 94 ft 0 kts 315°
2026-04-28 16:20 37.42180 -5.89977 94 ft 2 kts 315°
2026-04-28 16:21 37.42168 -5.89961 117 ft 2 kts 315°
2026-04-28 16:21 37.42156 -5.89946 93 ft 2 kts 318°
2026-04-28 16:21 37.42143 -5.89933 89 ft 2 kts
2026-04-28 16:21 37.42127 -5.89938 93 ft 2 kts 55°
2026-04-28 16:22 37.42123 -5.89943 92 ft 0 kts 76°
2026-04-28 16:23 37.42125 -5.89938 93 ft 4 kts 71°
2026-04-28 16:23 37.42174 -5.89872 94 ft 13 kts 44°
2026-04-28 16:23 37.42236 -5.89797 93 ft 12 kts 44°
2026-04-28 16:24 37.42258 -5.89715 96 ft 10 kts 115°
2026-04-28 16:24 37.42197 -5.89634 94 ft 14 kts 136°
2026-04-28 16:24 37.42138 -5.89558 96 ft 10 kts 134°
2026-04-28 16:24 37.42075 -5.89476 98 ft 18 kts 134°
2026-04-28 16:25 37.41994 -5.89369 99 ft 15 kts 123°
2026-04-28 16:25 37.41984 -5.89246 100 ft 15 kts 89°
2026-04-28 16:25 37.41985 -5.89078 101 ft 23 kts 89°
2026-04-28 16:25 37.41985 -5.88872 102 ft 23 kts 90°
2026-04-28 16:26 37.41983 -5.88684 103 ft 20 kts 91°
2026-04-28 16:26 37.41985 -5.88503 104 ft 24 kts 89°
2026-04-28 16:26 37.41986 -5.88290 105 ft 23 kts 89°
2026-04-28 16:26 37.41988 -5.88098 106 ft 21 kts 90°
2026-04-28 16:27 37.41988 -5.87909 107 ft 21 kts 89°
2026-04-28 16:27 37.41989 -5.87734 109 ft 19 kts 89°
2026-04-28 16:27 37.41956 -5.87462 112 ft 13 kts 124°
2026-04-28 16:28 37.41897 -5.87426 114 ft 7 kts 176°
2026-04-28 16:28 37.41869 -5.87428 113 ft 5 kts 188°
2026-04-28 16:28 37.41811 -5.87471 115 ft 12 kts 235°
2026-04-28 16:28 37.41795 -5.87733 112 ft 61 kts 270°
2026-04-28 16:29 37.41793 -5.89805 171 ft 160 kts 270°
2026-04-28 16:29 37.42088 -5.92560 1459 ft 166 kts 276°
2026-04-28 16:30 37.42330 -5.94061 1804 ft 185 kts 278°
2026-04-28 16:30 37.42605 -5.95749 2079 ft 209 kts 279°
2026-04-28 16:30 37.42913 -5.97652 2410 ft 234 kts 279°
2026-04-28 16:30 37.43253 -5.99762 2866 ft 256 kts 280°
2026-04-28 16:31 37.43501 -6.02016 3626 ft 263 kts 265°
2026-04-28 16:31 37.43060 -6.04226 4501 ft 263 kts 241°
2026-04-28 16:31 37.41932 -6.05993 5301 ft 266 kts 217°
2026-04-28 16:31 37.40278 -6.07001 6152 ft 267 kts 192°
2026-04-28 16:32 37.38386 -6.07092 6928 ft 272 kts 176°
2026-04-28 16:32 37.34586 -6.06761 8606 ft 278 kts 176°
2026-04-28 16:32 37.32671 -6.06602 9406 ft 282 kts 176°
2026-04-28 16:33 37.30701 -6.06444 10190 ft 285 kts 176°
2026-04-28 16:33 37.30027 -6.06391 10424 ft 287 kts 176°
2026-04-28 16:33 37.26604 -6.06125 11166 ft 313 kts 176°
2026-04-28 16:33 37.24347 -6.05952 11359 ft 337 kts 176°
2026-04-28 16:34 37.21954 -6.05768 11784 ft 349 kts 176°
2026-04-28 16:34 37.19517 -6.05581 12471 ft 353 kts 177°
2026-04-28 16:34 37.17050 -6.05703 13136 ft 358 kts 189°
2026-04-28 16:34 37.14642 -6.06523 13788 ft 362 kts 202°
2026-04-28 16:35 37.12419 -6.08032 14390 ft 366 kts 215°
2026-04-28 16:35 37.10440 -6.10045 15077 ft 366 kts 220°
2026-04-28 16:35 37.08487 -6.12094 15801 ft 366 kts 220°
2026-04-28 16:35 37.06523 -6.14142 16387 ft 370 kts 220°
2026-04-28 16:36 37.04542 -6.16195 17019 ft 371 kts 220°
2026-04-28 16:36 37.02546 -6.18260 17670 ft 373 kts 220°
2026-04-28 16:36 37.01221 -6.19642 18032 ft 375 kts 220°
2026-04-28 16:36 36.99212 -6.21762 18511 ft 379 kts 220°
2026-04-28 16:37 36.97197 -6.23905 19038 ft 381 kts 220°
2026-04-28 16:37 36.95180 -6.26060 19534 ft 383 kts 220°
2026-04-28 16:37 36.93142 -6.28237 19968 ft 387 kts 220°
2026-04-28 16:38 36.89013 -6.32622 20956 ft 391 kts 220°
2026-04-28 16:38 36.86929 -6.34826 21413 ft 395 kts 220°
2026-04-28 16:38 36.84824 -6.37050 21864 ft 397 kts 220°
2026-04-28 16:38 36.82713 -6.39279 22348 ft 399 kts 220°
2026-04-28 16:39 36.80585 -6.41519 22773 ft 402 kts 219°
2026-04-28 16:39 36.78439 -6.43778 23212 ft 405 kts 219°
2026-04-28 16:39 36.76287 -6.46043 23633 ft 407 kts 219°
2026-04-28 16:39 36.74121 -6.48323 24000 ft 409 kts 219°
2026-04-28 16:40 36.71941 -6.50616 24392 ft 410 kts 219°
2026-04-28 16:40 36.69789 -6.52879 24775 ft 411 kts 219°
2026-04-28 16:40 36.67601 -6.55178 25105 ft 413 kts 219°
2026-04-28 16:40 36.65396 -6.57493 25456 ft 415 kts 219°
2026-04-28 16:41 36.63188 -6.59813 25828 ft 416 kts 219°
2026-04-28 16:41 36.60966 -6.62144 26150 ft 419 kts 219°
2026-04-28 16:41 36.58735 -6.64484 26490 ft 420 kts 219°
2026-04-28 16:41 36.56495 -6.66831 26844 ft 422 kts 219°
2026-04-28 16:42 36.54239 -6.69193 27148 ft 425 kts 219°
2026-04-28 16:42 36.51974 -6.71563 27452 ft 427 kts 219°
2026-04-28 16:42 36.49695 -6.73942 27759 ft 429 kts 219°
2026-04-28 16:42 36.47392 -6.76322 28054 ft 431 kts 219°
2026-04-28 16:43 36.45081 -6.78698 28358 ft 432 kts 219°
2026-04-28 16:43 36.42755 -6.81086 28647 ft 434 kts 219°
2026-04-28 16:43 36.40424 -6.83480 28929 ft 436 kts 219°
2026-04-28 16:43 36.38083 -6.85888 29226 ft 438 kts 219°
2026-04-28 16:44 36.35759 -6.88277 29467 ft 440 kts 219°
2026-04-28 16:44 36.33400 -6.90699 29824 ft 440 kts 219°
2026-04-28 16:44 36.31047 -6.93111 30187 ft 438 kts 219°
2026-04-28 16:44 36.28697 -6.95519 30515 ft 438 kts 219°
2026-04-28 16:45 36.26320 -6.97957 30838 ft 437 kts 219°
2026-04-28 16:45 36.24006 -7.00329 31138 ft 437 kts 219°
2026-04-28 16:45 36.21666 -7.02725 31457 ft 436 kts 219°
2026-04-28 16:45 36.19331 -7.05113 31783 ft 436 kts 218°
2026-04-28 16:46 36.16996 -7.07500 32100 ft 435 kts 218°
2026-04-28 16:46 36.14661 -7.09881 32434 ft 434 kts 218°
2026-04-28 16:46 36.12331 -7.12253 32743 ft 434 kts 218°
2026-04-28 16:46 36.10003 -7.14621 33050 ft 433 kts 218°
2026-04-28 16:47 36.07677 -7.16985 33365 ft 433 kts 218°
2026-04-28 16:47 36.05352 -7.19350 33682 ft 432 kts 218°
2026-04-28 16:47 36.03032 -7.21708 33994 ft 431 kts 218°
2026-04-28 16:47 36.00712 -7.24063 34262 ft 431 kts 218°
2026-04-28 16:48 35.98402 -7.26408 34534 ft 430 kts 218°
2026-04-28 16:48 35.96084 -7.28759 34772 ft 430 kts 218°
2026-04-28 16:48 35.93771 -7.31101 34853 ft 430 kts 218°
2026-04-28 16:49 35.89142 -7.35787 34863 ft 430 kts 218°
2026-04-28 16:49 35.84547 -7.40440 34863 ft 430 kts 218°
2026-04-28 16:50 35.79916 -7.45109 34863 ft 430 kts 218°
2026-04-28 16:50 35.75259 -7.49753 34863 ft 430 kts 218°
2026-04-28 16:51 35.70597 -7.54390 34866 ft 430 kts 218°
2026-04-28 16:51 35.65948 -7.59017 34864 ft 430 kts 218°
2026-04-28 16:52 35.61303 -7.63641 34874 ft 430 kts 218°
2026-04-28 16:52 35.56649 -7.68255 34880 ft 430 kts 218°
2026-04-28 16:53 35.51997 -7.72859 34880 ft 430 kts 218°
2026-04-28 16:53 35.47337 -7.77468 34881 ft 430 kts 218°
2026-04-28 16:54 35.42678 -7.82069 34881 ft 430 kts 218°
2026-04-28 16:54 35.38025 -7.86671 34884 ft 430 kts 218°
2026-04-28 16:55 35.33394 -7.91317 34887 ft 430 kts 219°
2026-04-28 16:55 35.28770 -7.95964 34890 ft 430 kts 218°
2026-04-28 16:56 35.24127 -8.00596 34890 ft 430 kts 218°
2026-04-28 16:56 35.19478 -8.05209 34886 ft 430 kts 218°
2026-04-28 16:57 35.14862 -8.09792 34886 ft 430 kts 219°
2026-04-28 16:57 35.10217 -8.14404 34887 ft 431 kts 219°
2026-04-28 16:58 35.05563 -8.19022 34895 ft 431 kts 218°
2026-04-28 16:58 35.00903 -8.23619 34900 ft 431 kts 218°
2026-04-28 16:59 34.96243 -8.28230 34897 ft 431 kts 219°
2026-04-28 16:59 34.91584 -8.32835 34897 ft 431 kts 219°
2026-04-28 17:00 34.86909 -8.37426 34895 ft 432 kts 219°
2026-04-28 17:00 34.82235 -8.42021 34897 ft 433 kts 219°
2026-04-28 17:01 34.77569 -8.46602 34898 ft 433 kts 219°
2026-04-28 17:01 34.72875 -8.51204 34902 ft 434 kts 219°
2026-04-28 17:02 34.68145 -8.55842 34896 ft 434 kts 219°
2026-04-28 17:02 34.63432 -8.60437 34901 ft 435 kts 219°
2026-04-28 17:03 34.56349 -8.67341 34907 ft 435 kts 219°
2026-04-28 17:03 34.51668 -8.71919 34914 ft 435 kts 219°
2026-04-28 17:04 34.44574 -8.78806 34914 ft 436 kts 220°
2026-04-28 17:05 34.37442 -8.85678 34915 ft 437 kts 219°
2026-04-28 17:06 34.30301 -8.92532 34921 ft 437 kts 219°
2026-04-28 17:06 34.23151 -8.99369 34920 ft 436 kts 219°
2026-04-28 17:07 34.18395 -9.03920 34922 ft 436 kts 219°
2026-04-28 17:07 34.13638 -9.08469 34908 ft 436 kts 220°
2026-04-28 17:08 34.08876 -9.13021 34914 ft 437 kts 220°
2026-04-28 17:08 34.04103 -9.17563 34915 ft 437 kts 220°
2026-04-28 17:09 33.99349 -9.22070 34917 ft 438 kts 220°
2026-04-28 17:09 33.94564 -9.26614 34922 ft 438 kts 220°
2026-04-28 17:10 33.89772 -9.31157 34925 ft 438 kts 220°
2026-04-28 17:10 33.84980 -9.35695 34920 ft 439 kts 220°
2026-04-28 17:11 33.80183 -9.40236 34932 ft 439 kts 220°
2026-04-28 17:11 33.75383 -9.44770 34937 ft 439 kts 220°
2026-04-28 17:12 33.70572 -9.49292 34929 ft 439 kts 220°
2026-04-28 17:12 33.65752 -9.53822 34929 ft 440 kts 220°
2026-04-28 17:13 33.60922 -9.58368 34933 ft 441 kts 220°
2026-04-28 17:13 33.56090 -9.62911 34928 ft 442 kts 220°
2026-04-28 17:14 33.51247 -9.67455 34940 ft 442 kts 220°
2026-04-28 17:14 33.46395 -9.71989 34946 ft 442 kts 220°
2026-04-28 17:15 33.41545 -9.76513 34950 ft 442 kts 220°
2026-04-28 17:15 33.36689 -9.81035 34953 ft 442 kts 220°
2026-04-28 17:16 33.31836 -9.85554 34943 ft 442 kts 221°
2026-04-28 17:16 33.26976 -9.90091 34931 ft 444 kts 221°
2026-04-28 17:17 33.22129 -9.94597 34933 ft 445 kts 221°
2026-04-28 17:17 33.17237 -9.99131 34939 ft 445 kts 221°
2026-04-28 17:18 33.12339 -10.03671 34943 ft 446 kts 221°
2026-04-28 17:18 33.07435 -10.08212 34946 ft 446 kts 221°
2026-04-28 17:19 33.02529 -10.12736 34948 ft 446 kts 221°
2026-04-28 17:19 32.97621 -10.17246 34951 ft 446 kts 221°
2026-04-28 17:20 32.93538 -10.20994 34938 ft 446 kts 221°
2026-04-28 17:20 32.87819 -10.26249 34933 ft 448 kts 221°
2026-04-28 17:21 32.82877 -10.30792 34937 ft 449 kts 221°
2026-04-28 17:22 32.75421 -10.37601 34944 ft 451 kts 221°
2026-04-28 17:22 32.70451 -10.42144 34936 ft 451 kts 221°
2026-04-28 17:23 32.63833 -10.48192 34951 ft 451 kts 221°
2026-04-28 17:23 32.58052 -10.53458 34956 ft 451 kts 221°
2026-04-28 17:24 32.53069 -10.57978 34947 ft 451 kts 221°
2026-04-28 17:24 32.48925 -10.61738 34942 ft 452 kts 221°
2026-04-28 17:25 32.41418 -10.68542 34932 ft 454 kts 221°
2026-04-28 17:26 32.36400 -10.73069 34955 ft 453 kts 221°
2026-04-28 17:26 32.31384 -10.77588 34965 ft 453 kts 221°
2026-04-28 17:27 32.26370 -10.82112 34972 ft 453 kts 221°
2026-04-28 17:27 32.21359 -10.86634 34976 ft 453 kts 221°
2026-04-28 17:28 32.16343 -10.91145 34977 ft 453 kts 221°
2026-04-28 17:28 32.08827 -10.97882 34965 ft 452 kts 221°
2026-04-28 17:29 32.03822 -11.02374 34973 ft 452 kts 221°
2026-04-28 17:30 31.96342 -11.09078 34977 ft 452 kts 221°
2026-04-28 17:30 31.88820 -11.15791 34978 ft 452 kts 221°
2026-04-28 17:31 31.81295 -11.22522 34985 ft 452 kts 221°
2026-04-28 17:32 31.73777 -11.29202 34999 ft 451 kts 221°
2026-04-28 17:32 31.68781 -11.33649 34986 ft 450 kts 221°
2026-04-28 17:33 31.63811 -11.38079 34986 ft 451 kts 221°
2026-04-28 17:33 31.59658 -11.41781 34988 ft 451 kts 221°
2026-04-28 17:34 31.53814 -11.46978 34980 ft 451 kts 221°
2026-04-28 17:34 31.48846 -11.51382 34992 ft 450 kts 221°
2026-04-28 17:35 31.43860 -11.55796 35000 ft 449 kts 221°
2026-04-28 17:35 31.38882 -11.60198 34998 ft 448 kts 221°
2026-04-28 17:36 31.33912 -11.64586 35003 ft 447 kts 221°
2026-04-28 17:36 31.28945 -11.68966 34995 ft 447 kts 221°
2026-04-28 17:37 31.23976 -11.73343 34972 ft 446 kts 221°
2026-04-28 17:37 31.19029 -11.77703 35005 ft 445 kts 221°
2026-04-28 17:38 31.14095 -11.82038 35008 ft 443 kts 221°
2026-04-28 17:38 31.09164 -11.86362 35006 ft 442 kts 221°
2026-04-28 17:39 31.04279 -11.90642 35008 ft 442 kts 221°
2026-04-28 17:40 30.96915 -11.97099 35003 ft 441 kts 221°
2026-04-28 17:40 30.92004 -12.01390 34994 ft 441 kts 221°
2026-04-28 17:41 30.87099 -12.05667 34990 ft 440 kts 221°
2026-04-28 17:41 30.82210 -12.09933 34997 ft 439 kts 221°
2026-04-28 17:42 30.77318 -12.14181 35002 ft 438 kts 221°
2026-04-28 17:42 30.72432 -12.18428 34998 ft 438 kts 221°
2026-04-28 17:43 30.67580 -12.22644 35002 ft 438 kts 221°
2026-04-28 17:43 30.62702 -12.26865 34986 ft 437 kts 221°
2026-04-28 17:44 30.57823 -12.31082 34992 ft 437 kts 221°
2026-04-28 17:44 30.52943 -12.35294 34994 ft 437 kts 221°
2026-04-28 17:45 30.48073 -12.39507 34998 ft 436 kts 221°
2026-04-28 17:45 30.43203 -12.43703 34984 ft 436 kts 221°
2026-04-28 17:46 30.38321 -12.47894 34987 ft 437 kts 221°
2026-04-28 17:46 30.33436 -12.52080 34976 ft 437 kts 221°
2026-04-28 17:47 30.28549 -12.56262 34985 ft 437 kts 221°
2026-04-28 17:47 30.23660 -12.60434 34993 ft 437 kts 221°
2026-04-28 17:48 30.18790 -12.64579 34997 ft 437 kts 221°
2026-04-28 17:48 30.13888 -12.68753 35001 ft 437 kts 221°
2026-04-28 17:49 30.08999 -12.72945 35007 ft 437 kts 222°
2026-04-28 17:49 30.04275 -12.77341 34999 ft 436 kts 224°
2026-04-28 17:50 29.99620 -12.81839 34999 ft 436 kts 224°
2026-04-28 17:50 29.94939 -12.86304 35001 ft 437 kts 224°
2026-04-28 17:51 29.90226 -12.90731 35005 ft 437 kts 224°
2026-04-28 17:51 29.85503 -12.95141 35007 ft 437 kts 224°
2026-04-28 17:52 29.80777 -12.99549 35004 ft 437 kts 224°
2026-04-28 17:52 29.73721 -13.06146 34989 ft 438 kts 224°
2026-04-28 17:53 29.68993 -13.10561 35013 ft 438 kts 224°
2026-04-28 17:53 29.64263 -13.14966 35006 ft 437 kts 224°
2026-04-28 17:54 29.59532 -13.19380 35011 ft 438 kts 224°
2026-04-28 17:54 29.54797 -13.23790 35016 ft 438 kts 224°
2026-04-28 17:55 29.50052 -13.28188 35016 ft 438 kts 223°
2026-04-28 17:55 29.45307 -13.32583 35019 ft 439 kts 224°
2026-04-28 17:56 29.40571 -13.36993 35017 ft 438 kts 224°
2026-04-28 17:56 29.35826 -13.41389 35031 ft 438 kts 223°
2026-04-28 17:57 29.31079 -13.45766 35043 ft 438 kts 223°
2026-04-28 17:57 29.26337 -13.50142 35028 ft 438 kts 223°
2026-04-28 17:58 29.21594 -13.54525 35014 ft 438 kts 223°
2026-04-28 17:58 29.16869 -13.58864 35008 ft 439 kts 223°
2026-04-28 17:59 29.12101 -13.63223 34991 ft 439 kts 223°
2026-04-28 17:59 29.07338 -13.67586 35005 ft 438 kts 223°
2026-04-28 18:00 29.02592 -13.71951 35007 ft 438 kts 223°
2026-04-28 18:00 28.97846 -13.76308 35015 ft 438 kts 223°
2026-04-28 18:01 28.93093 -13.80652 35025 ft 437 kts 223°
2026-04-28 18:01 28.88347 -13.84986 35029 ft 437 kts 223°
2026-04-28 18:02 28.83595 -13.89325 35017 ft 437 kts 223°
2026-04-28 18:02 28.78848 -13.93652 35013 ft 437 kts 222°
2026-04-28 18:03 28.74092 -13.97984 35013 ft 438 kts 222°
2026-04-28 18:03 28.69323 -14.02311 35016 ft 438 kts 222°
2026-04-28 18:04 28.64556 -14.06638 35035 ft 438 kts 222°
2026-04-28 18:04 28.59821 -14.10941 35042 ft 438 kts 222°
2026-04-28 18:05 28.55823 -14.14575 35045 ft 439 kts 222°
2026-04-28 18:05 28.50276 -14.19595 35049 ft 439 kts 222°
2026-04-28 18:06 28.45502 -14.23910 35037 ft 438 kts 221°
2026-04-28 18:06 28.40726 -14.28222 35039 ft 438 kts 221°
2026-04-28 18:07 28.35959 -14.32519 35041 ft 438 kts 221°
2026-04-28 18:07 28.31187 -14.36816 35038 ft 438 kts 221°
2026-04-28 18:08 28.26421 -14.41108 35042 ft 438 kts 221°
2026-04-28 18:08 28.21651 -14.45395 35040 ft 438 kts 221°
2026-04-28 18:09 28.16878 -14.49682 35030 ft 438 kts 221°
2026-04-28 18:09 28.12109 -14.53968 35055 ft 437 kts 221°
2026-04-28 18:10 28.07343 -14.58230 35052 ft 436 kts 220°
2026-04-28 18:10 28.02727 -14.62658 35038 ft 433 kts 230°
2026-04-28 18:11 27.99472 -14.68311 35033 ft 428 kts 249°
2026-04-28 18:11 27.97853 -14.74720 35027 ft 427 kts 257°
2026-04-28 18:12 27.96448 -14.81252 35031 ft 428 kts 257°
2026-04-28 18:12 27.95019 -14.87784 35034 ft 428 kts 257°
2026-04-28 18:13 27.93590 -14.94327 35035 ft 429 kts 257°
2026-04-28 18:13 27.92405 -14.99779 35033 ft 430 kts 257°
2026-04-28 18:14 27.90977 -15.06340 35028 ft 430 kts 257°
2026-04-28 18:14 27.89544 -15.12904 35022 ft 430 kts 257°
2026-04-28 18:15 27.88103 -15.19460 35021 ft 430 kts 257°
2026-04-28 18:15 27.86651 -15.26022 35017 ft 430 kts 257°
2026-04-28 18:16 27.85925 -15.29300 34798 ft 431 kts 256°
2026-04-28 18:16 27.85197 -15.32586 34564 ft 431 kts 256°
2026-04-28 18:16 27.84469 -15.35881 34327 ft 432 kts 257°
2026-04-28 18:16 27.83742 -15.39183 34093 ft 433 kts 257°
2026-04-28 18:17 27.83167 -15.42530 33429 ft 436 kts 264°
2026-04-28 18:17 27.83079 -15.45973 32353 ft 442 kts 274°
2026-04-28 18:17 27.83379 -15.49401 31380 ft 445 kts 276°
2026-04-28 18:17 27.83702 -15.52900 30372 ft 449 kts 275°
2026-04-28 18:18 27.84017 -15.56432 29347 ft 452 kts 275°
2026-04-28 18:18 27.84326 -15.59970 28790 ft 442 kts 275°
2026-04-28 18:18 27.84617 -15.63363 28114 ft 437 kts 276°
2026-04-28 18:18 27.84815 -15.65658 27663 ft 433 kts 276°
2026-04-28 18:19 27.85196 -15.70107 26806 ft 427 kts 276°
2026-04-28 18:19 27.85481 -15.73434 26161 ft 423 kts 276°
2026-04-28 18:19 27.85762 -15.76728 25522 ft 419 kts 276°
2026-04-28 18:19 27.86041 -15.79996 24896 ft 416 kts 276°
2026-04-28 18:20 27.86316 -15.83236 24281 ft 413 kts 276°
2026-04-28 18:20 27.86587 -15.86454 23679 ft 410 kts 276°
2026-04-28 18:20 27.86857 -15.89647 23022 ft 406 kts 277°
2026-04-28 18:20 27.87126 -15.92800 22487 ft 400 kts 277°
2026-04-28 18:21 27.87388 -15.95903 21954 ft 394 kts 276°
2026-04-28 18:21 27.87646 -15.98968 21466 ft 389 kts 276°
2026-04-28 18:21 27.87901 -16.01987 20978 ft 383 kts 276°
2026-04-28 18:21 27.88152 -16.04968 20481 ft 379 kts 276°
2026-04-28 18:22 27.88399 -16.07911 20020 ft 374 kts 276°
2026-04-28 18:22 27.88643 -16.10830 19537 ft 371 kts 276°
2026-04-28 18:22 27.88883 -16.13715 19065 ft 368 kts 276°
2026-04-28 18:22 27.89116 -16.16557 18850 ft 357 kts 276°
2026-04-28 18:23 27.89338 -16.19295 18749 ft 344 kts 276°
2026-04-28 18:23 27.89549 -16.21909 18641 ft 332 kts 276°
2026-04-28 18:23 27.89750 -16.24472 18481 ft 322 kts 274°
2026-04-28 18:23 27.89610 -16.26969 18293 ft 317 kts 261°
2026-04-28 18:24 27.88984 -16.29375 17791 ft 324 kts 249°
2026-04-28 18:24 27.88388 -16.30948 17590 ft 320 kts 249°
2026-04-28 18:24 27.87233 -16.33998 17068 ft 317 kts 249°
2026-04-28 18:24 27.86372 -16.36279 16429 ft 314 kts 249°
2026-04-28 18:25 27.85521 -16.38550 15842 ft 316 kts 249°
2026-04-28 18:25 27.84668 -16.40834 15530 ft 313 kts 249°
2026-04-28 18:25 27.83826 -16.43090 15169 ft 310 kts 248°
2026-04-28 18:26 27.82155 -16.47550 13945 ft 306 kts 248°
2026-04-28 18:26 27.81328 -16.49749 13430 ft 304 kts 248°
2026-04-28 18:26 27.80501 -16.51955 13036 ft 304 kts 248°
2026-04-28 18:26 27.79690 -16.54116 12564 ft 303 kts 248°
2026-04-28 18:27 27.78874 -16.56284 12108 ft 298 kts 248°
2026-04-28 18:27 27.78064 -16.58436 11599 ft 296 kts 248°
2026-04-28 18:27 27.77263 -16.60565 11108 ft 293 kts 248°
2026-04-28 18:27 27.76463 -16.62684 10674 ft 293 kts 248°
2026-04-28 18:28 27.75671 -16.64786 10449 ft 287 kts 248°
2026-04-28 18:28 27.74910 -16.66808 10332 ft 274 kts 250°
2026-04-28 18:28 27.74534 -16.68833 10165 ft 256 kts 272°
2026-04-28 18:28 27.74892 -16.70753 9848 ft 250 kts 294°
2026-04-28 18:29 27.75882 -16.72353 9526 ft 249 kts 315°
2026-04-28 18:29 27.77154 -16.73685 9199 ft 249 kts 316°
2026-04-28 18:29 27.78420 -16.75008 8882 ft 248 kts 316°
2026-04-28 18:29 27.79665 -16.76310 8563 ft 247 kts 316°
2026-04-28 18:30 27.80919 -16.77627 8245 ft 246 kts 316°
2026-04-28 18:30 27.81761 -16.78515 8030 ft 245 kts 316°
2026-04-28 18:30 27.83408 -16.80251 7610 ft 244 kts 316°
2026-04-28 18:30 27.84535 -16.81665 7293 ft 241 kts 300°
2026-04-28 18:31 27.85092 -16.83432 6985 ft 239 kts 276°
2026-04-28 18:31 27.84962 -16.85281 6892 ft 239 kts 253°
2026-04-28 18:31 27.84350 -16.87026 6566 ft 237 kts 248°
2026-04-28 18:31 27.83706 -16.88738 6009 ft 237 kts 247°
2026-04-28 18:32 27.83059 -16.90450 5483 ft 236 kts 247°
2026-04-28 18:32 27.82417 -16.92149 4948 ft 235 kts 247°
2026-04-28 18:32 27.81777 -16.93846 4419 ft 234 kts 248°
2026-04-28 18:32 27.81192 -16.95552 3884 ft 232 kts 259°
2026-04-28 18:33 27.81184 -16.97325 3467 ft 228 kts 286°
2026-04-28 18:33 27.81884 -16.98897 3082 ft 223 kts 313°
2026-04-28 18:33 27.83116 -16.99918 3030 ft 223 kts 338°
2026-04-28 18:33 27.84635 -17.00233 3029 ft 224 kts
2026-04-28 18:34 27.86096 -16.99745 3030 ft 223 kts 30°
2026-04-28 18:34 27.87227 -16.98540 3029 ft 227 kts 56°
2026-04-28 18:34 27.88044 -16.97007 3029 ft 229 kts 58°
2026-04-28 18:34 27.88862 -16.95464 3030 ft 229 kts 58°
2026-04-28 18:35 27.89682 -16.93919 3028 ft 229 kts 57°
2026-04-28 18:35 27.90506 -16.92371 3033 ft 230 kts 57°
2026-04-28 18:35 27.91332 -16.90819 3034 ft 231 kts 58°
2026-04-28 18:35 27.92162 -16.89261 3036 ft 231 kts 57°
2026-04-28 18:36 27.92992 -16.87703 3038 ft 231 kts 57°
2026-04-28 18:36 27.93784 -16.86127 3031 ft 231 kts 64°
2026-04-28 18:36 27.94455 -16.84471 3028 ft 231 kts 64°
2026-04-28 18:36 27.95130 -16.82819 3029 ft 231 kts 63°
2026-04-28 18:37 27.95890 -16.81275 3021 ft 221 kts 59°
2026-04-28 18:37 27.96574 -16.79722 3021 ft 220 kts 65°
2026-04-28 18:37 27.97142 -16.78169 3019 ft 207 kts 66°
2026-04-28 18:37 27.97658 -16.76696 3019 ft 201 kts 66°
2026-04-28 18:38 27.98169 -16.75236 3018 ft 199 kts 67°
2026-04-28 18:38 27.98679 -16.73779 2911 ft 199 kts 66°
2026-04-28 18:38 27.99188 -16.72322 2687 ft 199 kts 66°
2026-04-28 18:38 27.99695 -16.70873 2428 ft 196 kts 66°
2026-04-28 18:39 28.00184 -16.69470 2193 ft 185 kts 68°
2026-04-28 18:39 28.00644 -16.68155 1937 ft 175 kts 69°
2026-04-28 18:39 28.01081 -16.66907 1700 ft 166 kts 69°
2026-04-28 18:39 28.01494 -16.65725 1514 ft 155 kts 69°
2026-04-28 18:40 28.01874 -16.64638 1345 ft 146 kts 69°
2026-04-28 18:40 28.02240 -16.63583 1056 ft 141 kts 70°
2026-04-28 18:40 28.02600 -16.62560 878 ft 140 kts 69°
2026-04-28 18:40 28.02960 -16.61541 703 ft 139 kts 70°
2026-04-28 18:41 28.03310 -16.60520 549 ft 139 kts 70°
2026-04-28 18:41 28.03665 -16.59500 367 ft 140 kts 71°
2026-04-28 18:41 28.04019 -16.58484 216 ft 137 kts 70°
2026-04-28 18:41 28.04328 -16.57582 193 ft 102 kts 68°
2026-04-28 18:42 28.04495 -16.57095 203 ft 30 kts 69°
2026-04-28 18:42 28.04605 -16.56939 208 ft 24 kts 46°
2026-04-28 18:42 28.04702 -16.56817 209 ft 20 kts 48°
2026-04-28 18:42 28.04777 -16.56772 214 ft 9 kts 338°
2026-04-28 18:43 28.04781 -16.56841 213 ft 14 kts 248°
2026-04-28 18:43 28.04741 -16.56960 215 ft 16 kts 249°
2026-04-28 18:43 28.04697 -16.57085 216 ft 18 kts 245°
2026-04-28 18:43 28.04641 -16.57222 215 ft 20 kts 248°
2026-04-28 18:44 28.04587 -16.57373 218 ft 16 kts 247°
2026-04-28 18:44 28.04675 -16.57521 217 ft 9 kts 284°
2026-04-28 18:44 28.04725 -16.57556 217 ft 7 kts 341°
2026-04-28 18:45 28.04757 -16.57570 221 ft 0 kts 338°